Location: Kossienso
(12.8611°N, 5.3207°W)
Time: 12:05:40
(UTC+00:00)

Daily predictions for brighter satellites

Satellite Brightness Start Highest point End
(mag) Time Altitude Azimuth Time Altitude Azimuth Time Altitude Azimuth
H-2A ROCKET BODY 1.8 18:58:09 10° NW 19:00:46 57° NNE 19:08:47 10° ESE
Cosmos 2154 Rocket 4.5 18:57:27 10° S 19:03:38 69° W 19:09:52 10° N
CZ-2D R/B 3.2 19:02:00 10° SSE 19:05:44 65° ENE 19:09:29 10° N
Cosmos 1833 Rocket 4.0 19:02:36 10° SE 19:06:00 16° ESE 19:09:23 10° ENE
CZ-4C R/B 3.8 19:02:25 10° NW 19:10:33 61° WSW 19:18:53 10° S
Cosmos 1943 Rocket 3.4 19:05:41 10° NNW 19:10:56 45° WSW 19:16:09 10° S
deb Ariane 4.4 19:07:41 10° WSW 19:12:26 28° S 19:14:36 10° SE
Cosmos 2251 Rocket 3.6 19:08:01 10° S 19:13:08 58° ESE 19:18:15 10° NNE
Cosmos 1939 Rocket 3.2 19:10:06 10° S 19:13:56 66° W 19:17:44 10° NNW
Cosmos 1606 3.7 19:14:06 10° NNE 19:17:17 26° E 19:20:28 10° SE
Ariane H10+ 4.3 19:14:03 10° SW 19:17:52 42° SSE 19:34:01 10° E
Cosmos 1633 2.9 19:18:25 10° SSE 19:21:45 39° E 19:25:04 10° NNE
Cosmos 1766 Rocket 4.4 19:18:57 10° SSW 19:23:19 57° W 19:27:42 10° N
ISS -1.6 19:22:25 10° NNE 19:24:19 14° NE 19:25:48 11° ENE
YAOGAN 1 2.6 19:21:57 10° SSE 19:26:16 90° W 19:30:35 10° NNW
FALCON 9 DEB 4.1 19:24:45 10° SW 19:28:08 51° NW 19:31:32 10° NNE
Yuri Rocket 2.9 19:25:58 10° WSW 19:30:34 71° SSE 19:34:34 11° ENE
Cosmos 1346 Rocket 4.2 19:30:50 10° SSW 19:34:33 41° W 19:38:18 10° NNW
Cosmos 1110 Rocket 4.0 19:29:21 10° N 19:34:38 78° ENE 19:39:54 10° SSE
Cosmos 1151 Rocket 3.6 19:31:47 10° NNE 19:35:39 34° E 19:38:42 15° SE
Iridium 2 3.9 19:37:34 10° NNE 19:41:09 45° E 19:44:02 15° SSE
Cosmos 1408 Rocket 4.0 19:37:21 10° SSW 19:41:46 66° W 19:46:11 10° N
COSMOS 2406 3.1 19:37:59 10° S 19:43:43 73° ESE 19:49:26 10° NNE
Cosmos 1743 Rocket 3.6 19:41:23 10° S 19:45:41 57° E 19:50:01 10° NNE
Cosmos 2366 rocket 3.9 19:39:31 10° S 19:45:49 75° E 19:52:01 10° N
Fermi 3.8 19:46:06 10° WNW 19:50:11 66° NNE 19:51:58 32° E
Cosmos 1302 Rocket 4.4 19:45:29 10° N 19:50:23 42° ENE 19:52:54 25° SE
Cosmos 1862 4.2 19:54:36 29° ENE 19:54:36 29° ENE 19:57:39 10° NNE
Abrixas rocket 3.5 19:52:27 10° WNW 19:55:01 29° SW 19:56:08 22° S
CZ-2C R/B 3.0 19:51:57 10° S 19:57:04 82° W 20:01:56 10° NNW
SJ-6B 4.2 19:57:52 24° ENE 19:57:52 24° ENE 20:00:37 10° NNE
CSL-04 Rocket 4.0 19:52:18 10° S 19:57:36 66° WSW 20:02:51 10° NNW
HJ-1C 4.0 19:54:24 11° S 19:57:36 57° W 20:00:54 10° NNW
SL-8 Rocket 4.5 19:52:04 10° SSW 19:58:07 62° W 20:04:12 10° N
Cosmos 2082 Rocket 2.8 19:53:57 10° SSE 19:58:55 31° ESE 20:03:53 10° NE
H-2A R/B 2.0 20:00:45 10° W 20:02:43 32° NNW 20:02:43 32° NNW
CZ-4 R/B 4.1 20:01:41 10° SW 20:04:10 17° W 20:06:40 10° WNW
Cosmos 1500 Rocket 3.6 20:00:47 10° S 20:05:05 78° W 20:09:23 10° N
CZ-2C R/B 3.7 20:01:38 10° NNE 20:06:02 53° ESE 20:07:52 31° SSE
Ariane Rocket 3.1 20:07:49 39° ESE 20:09:13 51° ENE 20:14:06 10° N
Cosmos 1190 Rocket 4.2 20:11:31 44° ESE 20:11:58 45° E 20:16:56 10° NNE
GPS 2-17 Rocket1 4.4 20:08:28 10° WNW 20:12:23 30° N 20:14:04 23° NE
Cosmos 292 Rocket 3.6 20:07:55 10° N 20:12:38 71° ENE 20:13:52 48° SE
SL-08 R/B 4.4 20:06:21 10° S 20:12:40 79° E 20:18:52 10° N
ARGOS 3.1 20:10:54 22° SSE 20:14:31 88° E 20:19:55 10° NNW
Cosmos 407 Rocket 3.4 20:09:33 10° S 20:14:50 66° ESE 20:20:06 10° NNE
Delta 202 4.4 20:09:34 10° W 20:15:55 50° N 20:18:28 29° NE
USA 238 DEB 3.5 20:20:45 10° S 20:27:10 60° ESE 20:33:38 10° NE
USA 238 3.5 20:20:54 10° S 20:27:18 59° ESE 20:33:44 10° NE
Cosmos 1805 Rocket 3.6 20:28:41 69° NNE 20:28:41 69° NNE 20:32:33 10° N
H-2A R/B 3.1 20:23:13 10° S 20:28:16 44° W 20:33:11 10° NNW
CZ-2C R/B 4.0 20:29:06 10° N 20:33:52 38° WNW 20:38:43 10° SW
MOS 1 4.1 20:33:32 65° SE 20:34:19 78° ENE 20:39:56 10° N
Cosmos 1140 Rocket 3.4 20:40:40 84° NNW 20:40:40 84° NNW 20:45:45 10° NNE
Cosmos 1782 4.1 20:38:00 10° N 20:40:31 37° NNW 20:40:31 37° NNW
SL-08 RB Rocket 4.2 20:41:53 54° WSW 20:42:13 55° W 20:46:42 10° NNW
CZ-3A R/B 4.4 20:08:24 10° W 20:42:39 53° N 20:48:05 28° ENE
MetOp-A 4.2 20:47:38 69° N 20:47:38 69° N 20:52:18 10° N
Cosmos 1833 Rocket 4.2 20:44:29 10° SW 20:49:33 35° WNW 20:54:37 10° N
Cosmos 1867 4.4 20:51:01 10° SW 20:56:10 47° WNW 21:01:23 10° N
ATLAS 5 CENTAUR R/B 4.3 20:54:57 10° NNE 20:57:18 18° NNE 20:57:18 18° NNE
Resurs 01 Rocket 4.4 21:05:06 10° N 21:05:06 10° N 21:05:08 10° N
ISS -0.4 20:58:22 10° WNW 20:58:47 12° W 20:58:47 12° W
ATLAS 5 CENTAUR R/B 4.3 21:45:09 14° ENE 21:45:09 14° ENE 21:49:55 10° ENE
Cosmos 2082 Rocket 4.5 21:38:48 10° WSW 21:42:49 20° WNW 21:46:50 10° NNW
ATLAS 2A CENTAUR R/B 3.8 21:06:44 10° WSW 21:45:03 88° NNW 21:45:14 87° NNE
